Location: Julian California
(33.0790°N, 116.6010°W)
Time: 16:57:16
(UTC-08:00)

Cosmos 1697 Rocket - Pass Details

Date: 12 July 2018
Orbit: 831 x 845 km, 71.0° (Epoch: 15 December)

Event Time Altitude Azimuth Distance (km) Brightness Sun altitude
Exits shadow 23:41:17 36° 38° (NE) 1,308 3.8 -32.6°
Drops below altitude 10° 23:44:36 10° 27° (NNE) 2,460 5.6 -32.8°
Sets 23:47:03 0° 24° (NNE) 3,397 6.5 -32.9°
